This is the latest recevied weather packets stored in our database for station/object DK4HPA-4. If no packets are shown the sender has not sent any weather packets the latest 10 day(s).
| Time | Temp. | Humidity | Pressure | Rain* | Wind** | Luminosity | Snow |
|---|---|---|---|---|---|---|---|
| 1778216517 | 5.56° C | 83% | 1027.1 hPa | 0 mm | - | 54 W/m² | - |
| 1778215828 | 4.44° C | 87% | 1027.1 hPa | 0 mm | - | 44 W/m² | - |
| 1778215302 | 3.89° C | 88% | 1027 hPa | 0 mm | - | 38 W/m² | - |
| 1778214676 | 3.89° C | 87% | 1027 hPa | 0 mm | - | 30 W/m² | - |
| 1778214085 | 3.89° C | 89% | 1027 hPa | 0 mm | - | 22 W/m² | - |
| 1778213533 | 2.78° C | 90% | 1026.9 hPa | 0 mm | - | 18 W/m² | - |
| 1778212884 | 2.78° C | 90% | 1026.7 hPa | 0 mm | - | 12 W/m² | - |
| 1778211693 | 3.33° C | 88% | 1026.8 hPa | 0 mm | - | 3 W/m² | - |
| 1778211028 | 3.33° C | 89% | 1026.7 hPa | 0 mm | - | 1 W/m² | - |
| 1778210453 | 3.33° C | 94% | 1026.7 hPa | 0 mm | - | 0 W/m² | - |
| 1778209901 | 2.78° C | 99% | 1026.7 hPa | 0 mm | - | 0 W/m² | - |
| 1778209237 | 2.22° C | 99% | 1026.5 hPa | 0 mm | - | 0 W/m² | - |
| 1778208757 | 2.22° C | 99% | 1026.6 hPa | 0 mm | - | 0 W/m² | - |
| 1778207533 | 1.67° C | 99% | 1026.6 hPa | 0 mm | - | 0 W/m² | - |
| 1778206941 | 1.67° C | 99% | 1026.7 hPa | 0 mm | - | 0 W/m² | - |
| 1778206253 | 1.67° C | 99% | 1026.6 hPa | 0 mm | - | 0 W/m² | - |
| 1778205654 | 2.22° C | 99% | 1026.6 hPa | 0 mm | - | 0 W/m² | - |
| 1778203860 | 2.22° C | 99% | 1026.5 hPa | 0 mm | - | 0 W/m² | - |
| 1778203309 | 2.22° C | 99% | 1026.4 hPa | 0 mm | - | 0 W/m² | - |
| 1778202685 | 2.22° C | 98% | 1026.4 hPa | 0 mm | - | 0 W/m² | - |
| 1778202126 | 2.78° C | 98% | 1026.4 hPa | 0 mm | - | 0 W/m² | - |
| 1778201549 | 2.22° C | 98% | 1026.4 hPa | 0 mm | - | 0 W/m² | - |
| 1778200958 | 2.22° C | 97% | 1026.3 hPa | 0 mm | - | 0 W/m² | - |
| 1778200309 | 2.22° C | 97% | 1026.3 hPa | 0 mm | - | 0 W/m² | - |
| 1778199085 | 2.78° C | 96% | 1026.2 hPa | 0 mm | - | 0 W/m² | - |
* Rain latest hour (hover to see other rain measurements)
** Current wind speed in m/s (hover to see current wind gust speed)